Regional Weather Roundup
Issued by NWS

Home | Current Version | Previous Version | Text Only | Print | Product List | Glossary On
Versions: 1 2 3 4 5 6 7 8 9 10 11 12 13 14 15 16 17 18 19 20 21 22 23 24 25 26 27 28 29 30 31 32 33 34 35 36 37 38 39 40 41 42 43 44 45 46 47 48 49 50
000
ASUS43 KDTX 011710
RWRMI
MICHIGAN HOURLY REGIONAL WEATHER ROUNDUP
NATIONAL WEATHER SERVICE DETROIT/PONTIAC MI
100 PM EDT SAT AUG 01 2015

NOTE: "FAIR" INDICATES FEW OR NO CLOUDS BELOW 12,000 FEET WITH NO
SIGNIFICANT WEATHER AND/OR OBSTRUCTION TO VISIBILITY.

MIZ047>049-052>055-059>063-066>070-074>076-081>083-011800-
SOUTHEAST LOWER MICHIGAN

CITY           SKY/WX    TMP DP  RH WIND       PRES   REMARKS
ADRIAN         MOSUNNY   79  54  41 NW12      29.96F
ALMA           PTSUNNY   78  51  38 W15G23    29.91S
ANN ARBOR      SUNNY     81  55  40 W13       29.93F
BAD AXE        PTSUNNY   74  57  54 W8        29.89F
CARO           MOSUNNY   79  57  47 W14       29.88F
DETROIT CITY   SUNNY     81  53  37 W12       29.91F
DETROIT        MOSUNNY   82  54  37 W13G22    29.93F
FLINT          MOSUNNY   82  54  37 W14G23    29.91F
GROSSE ILE     SUNNY     82  52  34 W5        29.91F
HILLSDALE      MOSUNNY   79  53  40 W9G16     29.97F
HOWELL         PTSUNNY   79  51  37 W10G17    29.93F

CITY           SKY/WX    TMP DP  RH WIND       PRES   REMARKS
JACKSON        MOSUNNY   79  55  43 NW12G20   29.95F
LAMBERTVILLE   MOSUNNY   79  55  43 W8        29.95F
LANSING        PTSUNNY   79  52  38 W18G25    29.93F
LAPEER         FAIR      78  55  44 W10       29.91F
MASON          PTSUNNY   78  50  37 NW16G25   29.94S
MONROE         PTSUNNY   81  56  42 NW12G17   29.93F
MT. CLEMENS    MOSUNNY   81  55  40 W8G20     29.89F
PONTIAC        PTSUNNY   78  55  44 W12G21    29.91F
PORT HOPE        N/A     76  57  51 W8        29.86S
PORT HURON     MOSUNNY   79  57  47 W9        29.90F
TRI CITIES     PTSUNNY   76  55  48 W13G22    29.89F
MIDLAND        PTSUNNY   79  56  45 NW7       29.88S
TROY           MOSUNNY   81  51  35 W13G18    29.93F
SAGINAW HB     CLOUDY    79  55  44 W13G20    29.88F
$$
MIZ043>046-050>051-056>058-064>065-071>073-077>080-011800-
SOUTHWEST LOWER MICHIGAN

CITY           SKY/WX    TMP DP  RH WIND       PRES   REMARKS
BATTLE CREEK   MOSUNNY   81  53  37 NW14      29.97S
BENTON HARBOR  SUNNY     78  59  51 W12       29.98S
BIG RAPIDS     PTSUNNY   77  46  32 NW10G24   29.91F
COLDWATER      MOSUNNY   80  50  35 W9        29.97F
FREMONT        FAIR      80  44  28 NW15G23   29.92F
HOLLAND        SUNNY     78  61  55 W9G16     29.97S
GRAND RAPIDS   MOSUNNY   82  47  29 W17G33    29.94S
IONIA          FAIR      80  48  32 W18G28    29.92S
KALAMAZOO      MOSUNNY   81  54  39 W10       29.97S
LUDINGTON      SUNNY     74  61  62 W10G16    29.93S
MARSHALL       PTSUNNY   80  51  36 W12G20    29.96S
MOUNT PLEASANT MOSUNNY   81  52  36 W12G17    29.89F
MUSKEGON       MOSUNNY   77  58  51 W13       29.95S
SOUTH HAVEN    SUNNY     76  59  55 W7        29.98S
$$
MIZ016>042-011800-
NORTHERN LOWER MICHIGAN

CITY           SKY/WX    TMP DP  RH WIND       PRES   REMARKS
ALPENA         MOSUNNY   79  54  41 NW10G17   29.85S
BEAVER ISLAND  SUNNY     72  58  60 W9        29.87S
BELLAIRE       MOSUNNY   75  54  47 W9        29.88S
CADILLAC       PTSUNNY   75  53  45 W12G17    29.90F
CHARLEVOIX     SUNNY     73  60  64 W13       29.90S
FRANKFORT      SUNNY     74  61  64 SW6       29.90S
GAYLORD        MOSUNNY   75  52  44 W14G28    29.88S
GRAYLING       PTSUNNY   74  52  46 NW16G22   29.89S
HARBOR SPRINGS SUNNY     72  60  66 SW9       29.87R
HOUGHTON LAKE  LGT RAIN  70  57  63 W15G28    29.90R
MANISTEE       SUNNY     73  55  53 W9        29.92S
OSCODA         PTSUNNY   78  51  39 NW10G17   29.85S
PELLSTON       MOSUNNY   78  56  46 SW12G18   29.85S
ROGERS CITY    MOSUNNY   72  63  73 N7        29.85F
TRAVERSE CITY  MOSUNNY   78  53  41 W15G21    29.86S
$$
MIZ007>008-015-011800-
EASTERN UPPER MICHIGAN

CITY           SKY/WX    TMP DP  RH WIND       PRES   REMARKS
KINROSS        PTSUNNY   73  55  53 W9        29.83S
MACKINAC ISLAN   N/A     70  58  66 SW7G17    29.85S
NEWBERRY       MOSUNNY   75  54  48 W12       29.84S
S. S. MARIE    SUNNY     71  57  61 NW9G17    29.83S
MUNISING         N/A     73  57  57 N9        29.86R
$$
MIZ004>006-011>014-085-011800-
CENTRAL UPPER MICHIGAN

CITY           SKY/WX    TMP DP  RH WIND       PRES   REMARKS
MANISTIQUE     CLOUDY    73  55  53 S3        29.85S
ESCANABA       PTSUNNY   77  52  41 N13G18    29.85S
MENOMINEE      SUNNY     75  54  46 NW9G16    29.88S
SAWYER-GWINN   MOSUNNY   75  48  38 NW13G25   29.86F
$$
MIZ001>003-009>011-084-011800-
WESTERN UPPER MICHIGAN

CITY           SKY/WX    TMP DP  RH WIND       PRES   REMARKS
IRON MOUNTAIN  MOSUNNY   76  51  41 NW10G23   29.89S
HOUGHTON       MOSUNNY   71  55  56 W16       29.86S
COPPER HARBOR    N/A     70  58  65 N16       29.82F
IRONWOOD       SUNNY     72  54  53 W10G22      N/A
$$

ABBREVIATIONS USED IN REMARKS
   TC - TEMPERATURE IN CELSIUS
  WCI - WIND CHILL INDEX
   HX - HEAT INDEX
  VSB - VISIBILITY




USA.gov is the U.S. government's official web portal to all federal, state and local government web resources and services.